owner,sensor,date,latitude,longitude,vertical_datum,direction_of_sea_water_velocity,sea_water_speed,upward_sea_water_velocity,qcFlag 
ADCP,ioos:station:wmo:42373:1,2007-12-01T00:18:00Z,27.3540,-94.6250,79.0,0.0,10.0,-9999.0,'11111222,11111222,99999999' 
ADCP,ioos:station:wmo:42373:1,2007-12-01T00:38:00Z,27.3540,-94.6250,79.0,0.0,9.7,-9999.0,'11133222,11111222,99999999' 
ADCP,ioos:station:wmo:42373:1,2007-12-01T00:58:00Z,27.3540,-94.6250,79.0,355.0,9.7,-9999.0,'11133222,11111222,99999999' 
ADCP,ioos:station:wmo:42373:1,2007-12-01T01:18:00Z,27.3540,-94.6250,79.0,344.0,9.7,-9999.0,'11133222,11111222,99999999' 
ADCP,ioos:station:wmo:42373:1,2007-12-01T01:38:00Z,27.3540,-94.6250,79.0,341.0,10.6,-9999.0,'11111222,11111222,99999999' 
ADCP,ioos:station:wmo:42373:1,2007-12-01T01:58:00Z,27.3540,-94.6250,79.0,336.0,10.5,-9999.0,'11111222,11111222,99999999' 
ADCP,ioos:station:wmo:42373:1,2007-12-01T02:18:00Z,27.3540,-94.6250,79.0,340.0,10.1,-9999.0,'11111222,11111222,99999999' 
ADCP,ioos:station:wmo:42373:1,2007-12-01T02:38:00Z,27.3540,-94.6250,79.0,340.0,9.9,-9999.0,'11133222,11111222,99999999' 
ADCP,ioos:station:wmo:42373:1,2007-12-01T02:58:00Z,27.3540,-94.6250,79.0,336.0,10.4,-9999.0,'11111222,11111222,99999999' 
ADCP,ioos:station:wmo:42373:1,2007-12-01T03:18:00Z,27.3540,-94.6250,79.0,352.0,10.7,-9999.0,'11111222,11111222,99999999' 
ADCP,ioos:station:wmo:42373:1,2007-12-01T03:38:00Z,27.3540,-94.6250,79.0,354.0,10.4,-9999.0,'11111222,11111222,99999999' 
ADCP,ioos:station:wmo:42373:1,2007-12-01T03:58:00Z,27.3540,-94.6250,79.0,1.0,10.6,-9999.0,'11111222,11111222,99999999' 
ADCP,ioos:station:wmo:42373:1,2007-12-01T04:18:00Z,27.3540,-94.6250,79.0,9.0,11.7,-9999.0,'11111222,11111222,99999999' 
ADCP,ioos:station:wmo:42373:1,2007-12-01T04:38:00Z,27.3540,-94.6250,79.0,16.0,13.5,-9999.0,'11111222,11111222,99999999' 
ADCP,ioos:station:wmo:42373:1,2007-12-01T04:58:00Z,27.3540,-94.6250,79.0,14.0,14.4,-9999.0,'11111222,11111222,99999999' 
ADCP,ioos:station:wmo:42373:1,2007-12-01T05:18:00Z,27.3540,-94.6250,79.0,10.0,14.8,-9999.0,'11111222,11111222,99999999' 
ADCP,ioos:station:wmo:42373:1,2007-12-01T05:38:00Z,27.3540,-94.6250,79.0,21.0,15.3,-9999.0,'11111222,11111222,99999999' 
ADCP,ioos:station:wmo:42373:1,2007-12-01T05:58:00Z,27.3540,-94.6250,79.0,26.0,16.0,-9999.0,'11111222,11111222,99999999' 
ADCP,ioos:station:wmo:42373:1,2007-12-01T06:18:00Z,27.3540,-94.6250,79.0,28.0,15.9,-9999.0,'11111222,11111222,99999999' 
ADCP,ioos:station:wmo:42373:1,2007-12-01T06:38:00Z,27.3540,-94.6250,79.0,30.0,15.0,-9999.0,'11111222,11111222,99999999' 
ADCP,ioos:station:wmo:42373:1,2007-12-01T06:58:00Z,27.3540,-94.6250,79.0,27.0,14.8,-9999.0,'11111222,11111222,99999999' 
ADCP,ioos:station:wmo:42373:1,2007-12-01T07:18:00Z,27.3540,-94.6250,79.0,31.0,13.8,-9999.0,'11111222,11111222,99999999' 
ADCP,ioos:station:wmo:42373:1,2007-12-01T07:38:00Z,27.3540,-94.6250,79.0,49.0,13.1,-9999.0,'11111222,11111222,99999999' 
ADCP,ioos:station:wmo:42373:1,2007-12-01T07:58:00Z,27.3540,-94.6250,79.0,39.0,11.5,-9999.0,'11111222,11111222,99999999' 
ADCP,ioos:station:wmo:42373:1,2007-12-01T08:18:00Z,27.3540,-94.6250,79.0,32.0,12.3,-9999.0,'11111222,11111222,99999999' 
ADCP,ioos:station:wmo:42373:1,2007-12-01T08:38:00Z,27.3540,-94.6250,79.0,31.0,12.7,-9999.0,'11111222,11111222,99999999' 
ADCP,ioos:station:wmo:42373:1,2007-12-01T08:58:00Z,27.3540,-94.6250,79.0,35.0,12.3,-9999.0,'11111222,11111222,99999999' 
ADCP,ioos:station:wmo:42373:1,2007-12-01T09:18:00Z,27.3540,-94.6250,79.0,43.0,13.6,-9999.0,'11111222,11111222,99999999' 
ADCP,ioos:station:wmo:42373:1,2007-12-01T09:38:00Z,27.3540,-94.6250,79.0,38.0,13.8,-9999.0,'11111222,11111222,99999999' 
ADCP,ioos:station:wmo:42373:1,2007-12-01T09:58:00Z,27.3540,-94.6250,79.0,37.0,15.2,-9999.0,'11111222,11111222,99999999' 
ADCP,ioos:station:wmo:42373:1,2007-12-01T10:18:00Z,27.3540,-94.6250,79.0,33.0,15.9,-9999.0,'11111222,11111222,99999999' 
ADCP,ioos:station:wmo:42373:1,2007-12-01T10:38:00Z,27.3540,-94.6250,79.0,29.0,14.5,-9999.0,'11111222,11111222,99999999' 
ADCP,ioos:station:wmo:42373:1,2007-12-01T10:58:00Z,27.3540,-94.6250,79.0,356.0,10.6,-9999.0,'11111222,11111222,99999999' 
ADCP,ioos:station:wmo:42373:1,2007-12-01T11:18:00Z,27.3540,-94.6250,79.0,3.0,10.3,-9999.0,'11111222,11111222,99999999' 
ADCP,ioos:station:wmo:42373:1,2007-12-01T11:38:00Z,27.3540,-94.6250,79.0,340.0,9.6,-9999.0,'11133222,11111222,99999999' 
ADCP,ioos:station:wmo:42373:1,2007-12-01T11:58:00Z,27.3540,-94.6250,79.0,327.0,10.3,-9999.0,'11111222,11111222,99999999' 
ADCP,ioos:station:wmo:42373:1,2007-12-01T12:18:00Z,27.3540,-94.6250,79.0,0.0,5.6,-9999.0,'11133222,11111222,99999999' 
ADCP,ioos:station:wmo:42373:1,2007-12-01T12:38:00Z,27.3540,-94.6250,79.0,357.0,6.6,-9999.0,'11133222,11111222,99999999' 
ADCP,ioos:station:wmo:42373:1,2007-12-01T12:58:00Z,27.3540,-94.6250,79.0,344.0,8.5,-9999.0,'11133222,11111222,99999999' 
ADCP,ioos:station:wmo:42373:1,2007-12-01T13:18:00Z,27.3540,-94.6250,79.0,357.0,8.1,-9999.0,'11133222,11111222,99999999' 
ADCP,ioos:station:wmo:42373:1,2007-12-01T13:38:00Z,27.3540,-94.6250,79.0,1.0,9.0,-9999.0,'11133222,11111222,99999999' 
ADCP,ioos:station:wmo:42373:1,2007-12-01T13:58:00Z,27.3540,-94.6250,79.0,3.0,9.8,-9999.0,'11133222,11111222,99999999' 
ADCP,ioos:station:wmo:42373:1,2007-12-01T14:18:00Z,27.3540,-94.6250,79.0,8.0,9.9,-9999.0,'11133222,11111222,99999999' 
ADCP,ioos:station:wmo:42373:1,2007-12-01T14:38:00Z,27.3540,-94.6250,79.0,19.0,9.9,-9999.0,'11133222,11111222,99999999' 
ADCP,ioos:station:wmo:42373:1,2007-12-01T14:58:00Z,27.3540,-94.6250,79.0,27.0,10.2,-9999.0,'11111222,11111222,99999999' 
ADCP,ioos:station:wmo:42373:1,2007-12-01T15:18:00Z,27.3540,-94.6250,79.0,27.0,10.0,-9999.0,'11111222,11111222,99999999' 
ADCP,ioos:station:wmo:42373:1,2007-12-01T15:38:00Z,27.3540,-94.6250,79.0,31.0,10.7,-9999.0,'11111222,11111222,99999999' 
ADCP,ioos:station:wmo:42373:1,2007-12-01T15:58:00Z,27.3540,-94.6250,79.0,37.0,11.5,-9999.0,'11111222,11111222,99999999' 
ADCP,ioos:station:wmo:42373:1,2007-12-01T16:18:00Z,27.3540,-94.6250,79.0,39.0,12.7,-9999.0,'11111222,11111222,99999999' 
ADCP,ioos:station:wmo:42373:1,2007-12-01T16:38:00Z,27.3540,-94.6250,79.0,42.0,12.9,-9999.0,'11111222,11111222,99999999' 
ADCP,ioos:station:wmo:42373:1,2007-12-01T16:58:00Z,27.3540,-94.6250,79.0,49.0,12.3,-9999.0,'11111222,11111222,99999999' 
ADCP,ioos:station:wmo:42373:1,2007-12-01T17:18:00Z,27.3540,-94.6250,79.0,54.0,13.5,-9999.0,'11111222,11111222,99999999' 
ADCP,ioos:station:wmo:42373:1,2007-12-01T17:38:00Z,27.3540,-94.6250,79.0,59.0,14.8,-9999.0,'11111222,11111222,99999999' 
ADCP,ioos:station:wmo:42373:1,2007-12-01T17:58:00Z,27.3540,-94.6250,79.0,56.0,15.3,-9999.0,'11111222,11111222,99999999' 
ADCP,ioos:station:wmo:42373:1,2007-12-01T18:18:00Z,27.3540,-94.6250,79.0,57.0,15.3,-9999.0,'11111222,11111222,99999999' 
ADCP,ioos:station:wmo:42373:1,2007-12-01T18:38:00Z,27.3540,-94.6250,79.0,57.0,14.9,-9999.0,'11111222,11111222,99999999' 
ADCP,ioos:station:wmo:42373:1,2007-12-01T18:58:00Z,27.3540,-94.6250,79.0,61.0,15.0,-9999.0,'11111222,11111222,99999999' 
ADCP,ioos:station:wmo:42373:1,2007-12-01T19:18:00Z,27.3540,-94.6250,79.0,58.0,14.5,-9999.0,'11111222,11111222,99999999' 
ADCP,ioos:station:wmo:42373:1,2007-12-01T19:38:00Z,27.3540,-94.6250,79.0,56.0,15.1,-9999.0,'11111222,11111222,99999999' 
ADCP,ioos:station:wmo:42373:1,2007-12-01T19:58:00Z,27.3540,-94.6250,79.0,67.0,17.6,-9999.0,'11111222,11111222,99999999' 
ADCP,ioos:station:wmo:42373:1,2007-12-01T20:18:00Z,27.3540,-94.6250,79.0,63.0,15.1,-9999.0,'11111222,11111222,99999999' 
ADCP,ioos:station:wmo:42373:1,2007-12-01T20:38:00Z,27.3540,-94.6250,79.0,64.0,13.7,-9999.0,'11111222,11111222,99999999' 
ADCP,ioos:station:wmo:42373:1,2007-12-01T20:58:00Z,27.3540,-94.6250,79.0,68.0,12.9,-9999.0,'11111222,11111222,99999999' 
ADCP,ioos:station:wmo:42373:1,2007-12-01T21:18:00Z,27.3540,-94.6250,79.0,67.0,11.6,-9999.0,'11111222,11111222,99999999' 
ADCP,ioos:station:wmo:42373:1,2007-12-01T21:38:00Z,27.3540,-94.6250,79.0,67.0,11.5,-9999.0,'11111222,11111222,99999999' 
ADCP,ioos:station:wmo:42373:1,2007-12-01T21:58:00Z,27.3540,-94.6250,79.0,61.0,11.0,-9999.0,'11111222,11111222,99999999' 
ADCP,ioos:station:wmo:42373:1,2007-12-01T22:18:00Z,27.3540,-94.6250,79.0,60.0,10.4,-9999.0,'11111222,11111222,99999999' 
ADCP,ioos:station:wmo:42373:1,2007-12-01T22:38:00Z,27.3540,-94.6250,79.0,54.0,9.8,-9999.0,'11133222,11111222,99999999' 
ADCP,ioos:station:wmo:42373:1,2007-12-01T22:58:00Z,27.3540,-94.6250,79.0,59.0,10.2,-9999.0,'11111222,11111222,99999999' 
ADCP,ioos:station:wmo:42373:1,2007-12-01T23:18:00Z,27.3540,-94.6250,79.0,60.0,7.6,-9999.0,'11133222,11111222,99999999' 
ADCP,ioos:station:wmo:42373:1,2007-12-01T23:38:00Z,27.3540,-94.6250,79.0,51.0,6.5,-9999.0,'11133222,11111222,99999999' 
ADCP,ioos:station:wmo:42373:1,2007-12-01T23:58:00Z,27.3540,-94.6250,79.0,41.0,5.0,-9999.0,'11133222,11111222,99999999' 
ADCP,ioos:station:wmo:42373:1,2007-12-02T00:18:00Z,27.3540,-94.6250,79.0,37.0,5.5,-9999.0,'11133222,11111222,99999999' 
ADCP,ioos:station:wmo:42373:1,2007-12-02T00:38:00Z,27.3540,-94.6250,79.0,18.0,4.6,-9999.0,'11133222,11111222,99999999' 
ADCP,ioos:station:wmo:42373:1,2007-12-02T00:58:00Z,27.3540,-94.6250,79.0,8.0,4.9,-9999.0,'11133222,11111222,99999999' 
ADCP,ioos:station:wmo:42373:1,2007-12-02T01:18:00Z,27.3540,-94.6250,79.0,9.0,5.7,-9999.0,'11133222,11111222,99999999' 
ADCP,ioos:station:wmo:42373:1,2007-12-02T01:38:00Z,27.3540,-94.6250,79.0,357.0,5.6,-9999.0,'11133222,11111222,99999999' 
ADCP,ioos:station:wmo:42373:1,2007-12-02T01:58:00Z,27.3540,-94.6250,79.0,357.0,6.5,-9999.0,'11133222,11111222,99999999' 
ADCP,ioos:station:wmo:42373:1,2007-12-02T02:18:00Z,27.3540,-94.6250,79.0,0.0,7.0,-9999.0,'11133222,11111222,99999999' 
ADCP,ioos:station:wmo:42373:1,2007-12-02T02:38:00Z,27.3540,-94.6250,79.0,1.0,7.0,-9999.0,'11133222,11111222,99999999' 
ADCP,ioos:station:wmo:42373:1,2007-12-02T02:58:00Z,27.3540,-94.6250,79.0,344.0,6.5,-9999.0,'11133222,11111222,99999999' 
ADCP,ioos:station:wmo:42373:1,2007-12-02T03:18:00Z,27.3540,-94.6250,79.0,346.0,6.7,-9999.0,'11133222,11111222,99999999' 
ADCP,ioos:station:wmo:42373:1,2007-12-02T03:38:00Z,27.3540,-94.6250,79.0,349.0,6.6,-9999.0,'11133222,11111222,99999999' 
ADCP,ioos:station:wmo:42373:1,2007-12-02T03:58:00Z,27.3540,-94.6250,79.0,340.0,6.8,-9999.0,'11133222,11111222,99999999' 
ADCP,ioos:station:wmo:42373:1,2007-12-02T04:18:00Z,27.3540,-94.6250,79.0,345.0,6.3,-9999.0,'11133222,11111222,99999999' 
ADCP,ioos:station:wmo:42373:1,2007-12-02T04:38:00Z,27.3540,-94.6250,79.0,352.0,7.6,-9999.0,'11133222,11111222,99999999' 
ADCP,ioos:station:wmo:42373:1,2007-12-02T04:58:00Z,27.3540,-94.6250,79.0,3.0,7.5,-9999.0,'11133222,11111222,99999999' 
ADCP,ioos:station:wmo:42373:1,2007-12-02T05:18:00Z,27.3540,-94.6250,79.0,6.0,9.2,-9999.0,'11133222,11111222,99999999' 
ADCP,ioos:station:wmo:42373:1,2007-12-02T05:38:00Z,27.3540,-94.6250,79.0,1.0,8.3,-9999.0,'11133222,11111222,99999999' 
ADCP,ioos:station:wmo:42373:1,2007-12-02T05:58:00Z,27.3540,-94.6250,79.0,356.0,7.8,-9999.0,'11133222,11111222,99999999' 
ADCP,ioos:station:wmo:42373:1,2007-12-02T06:18:00Z,27.3540,-94.6250,79.0,6.0,8.2,-9999.0,'11133222,11111222,99999999' 
ADCP,ioos:station:wmo:42373:1,2007-12-02T06:38:00Z,27.3540,-94.6250,79.0,6.0,8.3,-9999.0,'11133222,11111222,99999999' 
ADCP,ioos:station:wmo:42373:1,2007-12-02T06:58:00Z,27.3540,-94.6250,79.0,359.0,8.0,-9999.0,'11133222,11111222,99999999' 
ADCP,ioos:station:wmo:42373:1,2007-12-02T07:18:00Z,27.3540,-94.6250,79.0,343.0,10.5,-9999.0,'11111222,11111222,99999999' 
ADCP,ioos:station:wmo:42373:1,2007-12-02T07:38:00Z,27.3540,-94.6250,79.0,349.0,9.8,-9999.0,'11133222,11111222,99999999' 
ADCP,ioos:station:wmo:42373:1,2007-12-02T07:58:00Z,27.3540,-94.6250,79.0,340.0,9.5,-9999.0,'11133222,11111222,99999999' 
ADCP,ioos:station:wmo:42373:1,2007-12-02T08:18:00Z,27.3540,-94.6250,79.0,339.0,9.1,-9999.0,'11133222,11111222,99999999' 
ADCP,ioos:station:wmo:42373:1,2007-12-02T08:38:00Z,27.3540,-94.6250,79.0,331.0,9.6,-9999.0,'11133222,11111222,99999999' 
ADCP,ioos:station:wmo:42373:1,2007-12-02T08:58:00Z,27.3540,-94.6250,79.0,334.0,9.3,-9999.0,'11133222,11111222,99999999' 
ADCP,ioos:station:wmo:42373:1,2007-12-02T09:18:00Z,27.3540,-94.6250,79.0,335.0,8.6,-9999.0,'11133222,11111222,99999999' 
ADCP,ioos:station:wmo:42373:1,2007-12-02T09:38:00Z,27.3540,-94.6250,79.0,332.0,8.9,-9999.0,'11133222,11111222,99999999' 
ADCP,ioos:station:wmo:42373:1,2007-12-02T09:58:00Z,27.3540,-94.6250,79.0,326.0,8.2,-9999.0,'11133222,11111222,99999999' 
ADCP,ioos:station:wmo:42373:1,2007-12-02T10:18:00Z,27.3540,-94.6250,79.0,331.0,8.5,-9999.0,'11133222,11111222,99999999' 
ADCP,ioos:station:wmo:42373:1,2007-12-02T10:38:00Z,27.3540,-94.6250,79.0,338.0,8.1,-9999.0,'11133222,11111222,99999999' 
ADCP,ioos:station:wmo:42373:1,2007-12-02T10:58:00Z,27.3540,-94.6250,79.0,25.0,9.5,-9999.0,'11133222,11111222,99999999' 
ADCP,ioos:station:wmo:42373:1,2007-12-02T11:18:00Z,27.3540,-94.6250,79.0,42.0,13.7,-9999.0,'11111222,11111222,99999999' 
ADCP,ioos:station:wmo:42373:1,2007-12-02T11:38:00Z,27.3540,-94.6250,79.0,44.0,15.3,-9999.0,'11111222,11111222,99999999' 
ADCP,ioos:station:wmo:42373:1,2007-12-02T11:58:00Z,27.3540,-94.6250,79.0,46.0,16.8,-9999.0,'11111222,11111222,99999999' 
ADCP,ioos:station:wmo:42373:1,2007-12-02T12:18:00Z,27.3540,-94.6250,79.0,45.0,18.0,-9999.0,'11111222,11111222,99999999' 
ADCP,ioos:station:wmo:42373:1,2007-12-02T12:38:00Z,27.3540,-94.6250,79.0,45.0,17.0,-9999.0,'11111222,11111222,99999999' 
ADCP,ioos:station:wmo:42373:1,2007-12-02T12:58:00Z,27.3540,-94.6250,79.0,47.0,17.3,-9999.0,'11111222,11111222,99999999' 
ADCP,ioos:station:wmo:42373:1,2007-12-02T13:18:00Z,27.3540,-94.6250,79.0,54.0,17.5,-9999.0,'11111222,11111222,99999999' 
ADCP,ioos:station:wmo:42373:1,2007-12-02T13:38:00Z,27.3540,-94.6250,79.0,53.0,16.4,-9999.0,'11111222,11111222,99999999' 
ADCP,ioos:station:wmo:42373:1,2007-12-02T13:58:00Z,27.3540,-94.6250,79.0,54.0,15.9,-9999.0,'11111222,11111222,99999999' 
ADCP,ioos:station:wmo:42373:1,2007-12-02T14:18:00Z,27.3540,-94.6250,79.0,55.0,15.6,-9999.0,'11111222,11111222,99999999' 
ADCP,ioos:station:wmo:42373:1,2007-12-02T14:38:00Z,27.3540,-94.6250,79.0,56.0,20.2,-9999.0,'11111222,11111222,99999999' 
ADCP,ioos:station:wmo:42373:1,2007-12-02T14:58:00Z,27.3540,-94.6250,79.0,61.0,22.1,-9999.0,'11111222,11111222,99999999' 
ADCP,ioos:station:wmo:42373:1,2007-12-02T15:18:00Z,27.3540,-94.6250,79.0,62.0,22.7,-9999.0,'11111222,11111222,99999999' 
ADCP,ioos:station:wmo:42373:1,2007-12-02T15:38:00Z,27.3540,-94.6250,79.0,65.0,22.8,-9999.0,'11111222,11111222,99999999' 
ADCP,ioos:station:wmo:42373:1,2007-12-02T15:58:00Z,27.3540,-94.6250,79.0,67.0,22.7,-9999.0,'11111222,11111222,99999999' 
ADCP,ioos:station:wmo:42373:1,2007-12-02T16:18:00Z,27.3540,-94.6250,79.0,70.0,21.6,-9999.0,'11111222,11111222,99999999' 
ADCP,ioos:station:wmo:42373:1,2007-12-02T16:38:00Z,27.3540,-94.6250,79.0,70.0,21.1,-9999.0,'11111222,11111222,99999999' 
ADCP,ioos:station:wmo:42373:1,2007-12-02T16:58:00Z,27.3540,-94.6250,79.0,70.0,22.6,-9999.0,'11111222,11111222,99999999' 
ADCP,ioos:station:wmo:42373:1,2007-12-02T17:18:00Z,27.3540,-94.6250,79.0,72.0,21.8,-9999.0,'11111222,11111222,99999999' 
ADCP,ioos:station:wmo:42373:1,2007-12-02T17:38:00Z,27.3540,-94.6250,79.0,70.0,20.5,-9999.0,'11111222,11111222,99999999' 
ADCP,ioos:station:wmo:42373:1,2007-12-02T17:58:00Z,27.3540,-94.6250,79.0,72.0,21.6,-9999.0,'11111222,11111222,99999999' 
ADCP,ioos:station:wmo:42373:1,2007-12-02T18:18:00Z,27.3540,-94.6250,79.0,71.0,19.0,-9999.0,'11111222,11111222,99999999' 
ADCP,ioos:station:wmo:42373:1,2007-12-02T18:38:00Z,27.3540,-94.6250,79.0,75.0,21.8,-9999.0,'11111222,11111222,99999999' 
ADCP,ioos:station:wmo:42373:1,2007-12-02T18:58:00Z,27.3540,-94.6250,79.0,70.0,19.7,-9999.0,'11111222,11111222,99999999' 
ADCP,ioos:station:wmo:42373:1,2007-12-02T19:18:00Z,27.3540,-94.6250,79.0,72.0,19.3,-9999.0,'11111222,11111222,99999999' 
ADCP,ioos:station:wmo:42373:1,2007-12-02T19:38:00Z,27.3540,-94.6250,79.0,74.0,18.7,-9999.0,'11111222,11111222,99999999' 
ADCP,ioos:station:wmo:42373:1,2007-12-02T19:58:00Z,27.3540,-94.6250,79.0,76.0,17.7,-9999.0,'11111222,11111222,99999999' 
ADCP,ioos:station:wmo:42373:1,2007-12-02T20:18:00Z,27.3540,-94.6250,79.0,78.0,16.7,-9999.0,'11111222,11111222,99999999' 
ADCP,ioos:station:wmo:42373:1,2007-12-02T20:38:00Z,27.3540,-94.6250,79.0,81.0,15.7,-9999.0,'11111222,11111222,99999999' 
ADCP,ioos:station:wmo:42373:1,2007-12-02T20:58:00Z,27.3540,-94.6250,79.0,85.0,14.5,-9999.0,'11111222,11111222,99999999' 
ADCP,ioos:station:wmo:42373:1,2007-12-02T21:18:00Z,27.3540,-94.6250,79.0,85.0,13.8,-9999.0,'11111222,11111222,99999999' 
ADCP,ioos:station:wmo:42373:1,2007-12-02T21:38:00Z,27.3540,-94.6250,79.0,85.0,12.9,-9999.0,'11111222,11111222,99999999' 
ADCP,ioos:station:wmo:42373:1,2007-12-02T21:58:00Z,27.3540,-94.6250,79.0,84.0,11.9,-9999.0,'11111222,11111222,99999999' 
ADCP,ioos:station:wmo:42373:1,2007-12-02T22:18:00Z,27.3540,-94.6250,79.0,82.0,11.0,-9999.0,'11111222,11111222,99999999' 
ADCP,ioos:station:wmo:42373:1,2007-12-02T22:38:00Z,27.3540,-94.6250,79.0,75.0,10.7,-9999.0,'11111222,11111222,99999999' 
ADCP,ioos:station:wmo:42373:1,2007-12-02T22:58:00Z,27.3540,-94.6250,79.0,70.0,9.5,-9999.0,'11133222,11111222,99999999' 
ADCP,ioos:station:wmo:42373:1,2007-12-02T23:18:00Z,27.3540,-94.6250,79.0,67.0,9.6,-9999.0,'11133222,11111222,99999999' 
ADCP,ioos:station:wmo:42373:1,2007-12-02T23:38:00Z,27.3540,-94.6250,79.0,65.0,8.8,-9999.0,'11133222,11111222,99999999' 
ADCP,ioos:station:wmo:42373:1,2007-12-02T23:58:00Z,27.3540,-94.6250,79.0,66.0,7.6,-9999.0,'11133222,11111222,99999999' 
ADCP,ioos:station:wmo:42373:1,2007-12-03T00:18:00Z,27.3540,-94.6250,79.0,60.0,6.8,-9999.0,'11133222,11111222,99999999' 
ADCP,ioos:station:wmo:42373:1,2007-12-03T00:38:00Z,27.3540,-94.6250,79.0,48.0,5.2,-9999.0,'11133222,11111222,99999999' 
ADCP,ioos:station:wmo:42373:1,2007-12-03T00:58:00Z,27.3540,-94.6250,79.0,43.0,3.8,-9999.0,'11133222,11111222,99999999' 
ADCP,ioos:station:wmo:42373:1,2007-12-03T01:18:00Z,27.3540,-94.6250,79.0,36.0,3.7,-9999.0,'11133222,11111222,99999999' 
ADCP,ioos:station:wmo:42373:1,2007-12-03T01:38:00Z,27.3540,-94.6250,79.0,39.0,3.5,-9999.0,'11133222,11111222,99999999' 
ADCP,ioos:station:wmo:42373:1,2007-12-03T01:58:00Z,27.3540,-94.6250,79.0,21.0,2.8,-9999.0,'11133222,11111222,99999999' 
ADCP,ioos:station:wmo:42373:1,2007-12-03T02:18:00Z,27.3540,-94.6250,79.0,8.0,3.0,-9999.0,'11133222,11111222,99999999' 
ADCP,ioos:station:wmo:42373:1,2007-12-03T02:38:00Z,27.3540,-94.6250,79.0,349.0,3.2,-9999.0,'11133222,11111222,99999999' 
ADCP,ioos:station:wmo:42373:1,2007-12-03T02:58:00Z,27.3540,-94.6250,79.0,348.0,3.8,-9999.0,'11133222,11111222,99999999' 
ADCP,ioos:station:wmo:42373:1,2007-12-03T03:18:00Z,27.3540,-94.6250,79.0,335.0,4.3,-9999.0,'11133222,11111222,99999999' 
ADCP,ioos:station:wmo:42373:1,2007-12-03T03:38:00Z,27.3540,-94.6250,79.0,344.0,4.5,-9999.0,'11133222,11111222,99999999' 
ADCP,ioos:station:wmo:42373:1,2007-12-03T03:58:00Z,27.3540,-94.6250,79.0,343.0,5.0,-9999.0,'11133222,11111222,99999999' 
ADCP,ioos:station:wmo:42373:1,2007-12-03T04:18:00Z,27.3540,-94.6250,79.0,345.0,5.6,-9999.0,'11133222,11111222,99999999' 
ADCP,ioos:station:wmo:42373:1,2007-12-03T04:38:00Z,27.3540,-94.6250,79.0,356.0,6.0,-9999.0,'11133222,11111222,99999999' 
ADCP,ioos:station:wmo:42373:1,2007-12-03T04:58:00Z,27.3540,-94.6250,79.0,3.0,7.6,-9999.0,'11133222,11111222,99999999' 
ADCP,ioos:station:wmo:42373:1,2007-12-03T05:18:00Z,27.3540,-94.6250,79.0,3.0,8.4,-9999.0,'11133222,11111222,99999999' 
ADCP,ioos:station:wmo:42373:1,2007-12-03T05:38:00Z,27.3540,-94.6250,79.0,6.0,9.8,-9999.0,'11133222,11111222,99999999' 
ADCP,ioos:station:wmo:42373:1,2007-12-03T05:58:00Z,27.3540,-94.6250,79.0,13.0,10.4,-9999.0,'11111222,11111222,99999999' 
ADCP,ioos:station:wmo:42373:1,2007-12-03T06:18:00Z,27.3540,-94.6250,79.0,5.0,10.7,-9999.0,'11111222,11111222,99999999' 
ADCP,ioos:station:wmo:42373:1,2007-12-03T06:38:00Z,27.3540,-94.6250,79.0,2.0,10.8,-9999.0,'11111222,11111222,99999999' 
ADCP,ioos:station:wmo:42373:1,2007-12-03T06:58:00Z,27.3540,-94.6250,79.0,7.0,11.5,-9999.0,'11111222,11111222,99999999' 
ADCP,ioos:station:wmo:42373:1,2007-12-03T07:18:00Z,27.3540,-94.6250,79.0,359.0,11.4,-9999.0,'11111222,11111222,99999999' 
ADCP,ioos:station:wmo:42373:1,2007-12-03T07:38:00Z,27.3540,-94.6250,79.0,355.0,11.4,-9999.0,'11111222,11111222,99999999' 
ADCP,ioos:station:wmo:42373:1,2007-12-03T07:58:00Z,27.3540,-94.6250,79.0,353.0,12.3,-9999.0,'11111222,11111222,99999999' 
ADCP,ioos:station:wmo:42373:1,2007-12-03T08:18:00Z,27.3540,-94.6250,79.0,355.0,13.9,-9999.0,'11111222,11111222,99999999' 
ADCP,ioos:station:wmo:42373:1,2007-12-03T08:38:00Z,27.3540,-94.6250,79.0,353.0,14.5,-9999.0,'11111222,11111222,99999999' 
ADCP,ioos:station:wmo:42373:1,2007-12-03T08:58:00Z,27.3540,-94.6250,79.0,356.0,14.8,-9999.0,'11111222,11111222,99999999' 
ADCP,ioos:station:wmo:42373:1,2007-12-03T09:18:00Z,27.3540,-94.6250,79.0,350.0,15.1,-9999.0,'11111222,11111222,99999999' 
ADCP,ioos:station:wmo:42373:1,2007-12-03T09:38:00Z,27.3540,-94.6250,79.0,345.0,15.7,-9999.0,'11111222,11111222,99999999' 
ADCP,ioos:station:wmo:42373:1,2007-12-03T09:58:00Z,27.3540,-94.6250,79.0,331.0,15.7,-9999.0,'11111222,11111222,99999999' 
ADCP,ioos:station:wmo:42373:1,2007-12-03T10:18:00Z,27.3540,-94.6250,79.0,330.0,14.8,-9999.0,'11111222,11111222,99999999' 
ADCP,ioos:station:wmo:42373:1,2007-12-03T10:38:00Z,27.3540,-94.6250,79.0,329.0,14.6,-9999.0,'11111222,11111222,99999999' 
ADCP,ioos:station:wmo:42373:1,2007-12-03T10:58:00Z,27.3540,-94.6250,79.0,326.0,14.2,-9999.0,'11111222,11111222,99999999' 
ADCP,ioos:station:wmo:42373:1,2007-12-03T11:18:00Z,27.3540,-94.6250,79.0,317.0,14.3,-9999.0,'11111222,11111222,99999999' 
ADCP,ioos:station:wmo:42373:1,2007-12-03T11:38:00Z,27.3540,-94.6250,79.0,311.0,14.0,-9999.0,'11111222,11111222,99999999' 
ADCP,ioos:station:wmo:42373:1,2007-12-03T11:58:00Z,27.3540,-94.6250,79.0,314.0,13.7,-9999.0,'11111222,11111222,99999999' 
ADCP,ioos:station:wmo:42373:1,2007-12-03T12:18:00Z,27.3540,-94.6250,79.0,310.0,13.3,-9999.0,'11111222,11111222,99999999' 
ADCP,ioos:station:wmo:42373:1,2007-12-03T12:38:00Z,27.3540,-94.6250,79.0,312.0,12.7,-9999.0,'11111222,11111222,99999999' 
ADCP,ioos:station:wmo:42373:1,2007-12-03T12:58:00Z,27.3540,-94.6250,79.0,317.0,12.2,-9999.0,'11111222,11111222,99999999' 
ADCP,ioos:station:wmo:42373:1,2007-12-03T13:18:00Z,27.3540,-94.6250,79.0,315.0,13.8,-9999.0,'11111222,11111222,99999999' 
ADCP,ioos:station:wmo:42373:1,2007-12-03T13:38:00Z,27.3540,-94.6250,79.0,325.0,13.0,-9999.0,'11111222,11111222,99999999' 
ADCP,ioos:station:wmo:42373:1,2007-12-03T13:58:00Z,27.3540,-94.6250,79.0,324.0,12.8,-9999.0,'11111222,11111222,99999999' 
ADCP,ioos:station:wmo:42373:1,2007-12-03T14:18:00Z,27.3540,-94.6250,79.0,310.0,12.9,-9999.0,'11111222,11111222,99999999' 
ADCP,ioos:station:wmo:42373:1,2007-12-03T14:38:00Z,27.3540,-94.6250,79.0,325.0,10.5,-9999.0,'11111222,11111222,99999999' 
ADCP,ioos:station:wmo:42373:1,2007-12-03T14:58:00Z,27.3540,-94.6250,79.0,349.0,10.1,-9999.0,'11111222,11111222,99999999' 
ADCP,ioos:station:wmo:42373:1,2007-12-03T15:18:00Z,27.3540,-94.6250,79.0,10.0,11.1,-9999.0,'11111222,11111222,99999999' 
ADCP,ioos:station:wmo:42373:1,2007-12-03T15:38:00Z,27.3540,-94.6250,79.0,16.0,10.9,-9999.0,'11111222,11111222,99999999' 
ADCP,ioos:station:wmo:42373:1,2007-12-03T15:58:00Z,27.3540,-94.6250,79.0,22.0,11.1,-9999.0,'11111222,11111222,99999999' 
ADCP,ioos:station:wmo:42373:1,2007-12-03T16:18:00Z,27.3540,-94.6250,79.0,32.0,12.0,-9999.0,'11111222,11111222,99999999' 
ADCP,ioos:station:wmo:42373:1,2007-12-03T16:38:00Z,27.3540,-94.6250,79.0,52.0,12.9,-9999.0,'11111222,11111222,99999999' 
ADCP,ioos:station:wmo:42373:1,2007-12-03T18:06:00Z,27.3540,-94.6250,79.0,52.0,18.1,-9999.0,'11111222,11111222,99999999' 
ADCP,ioos:station:wmo:42373:1,2007-12-03T18:26:00Z,27.3540,-94.6250,79.0,44.0,16.4,-9999.0,'11111222,11111222,99999999' 
ADCP,ioos:station:wmo:42373:1,2007-12-03T18:46:00Z,27.3540,-94.6250,79.0,34.0,15.5,-9999.0,'11111222,11111222,99999999' 